This demonstration page uses our WeatherBlox Daily Observations layout. Learn more.

Left ArrowRight Arrow

Hourly Observations for January 15, 2022

Temp ( °F °C ) Dew Point ( °F °C ) Humidity (%) Winds ( mph kmh ) Pressure ( in mb ) Visibility ( mi km ) Precip ( " mm )
12:53 am 00:53 Cloudy 47 8.3 27 -2.8 46 46 NNE 23 37 30.17 1022 10 16 0.00 0.00
1:01 am 01:01 Mostly Cloudy 47 8.3 27 -2.8 46 46 N 20 31 30.25 1024 10 16 0.00 0.00
1:53 am 01:53 Cloudy 45 7.2 27 -2.8 49 49 N 10 17 30.20 1023 10 16 0.00 0.00
2:53 am 02:53 Cloudy 44 6.7 17 -8.3 34 34 N 28 44 30.24 1024 9 14 0.00 0.00
3:53 am 03:53 Cloudy 41 5 17 -8.3 38 38 N 14 22 30.26 1025 8 13 0.00 0.00
4:18 am 04:18 Cloudy 40 4.4 16 -8.9 38 38 N 12 19 30.38 1029 9 14 0.00 0.00
4:53 am 04:53 Mostly Cloudy 40 4.4 15 -9.4 36 36 N 14 22 30.27 1025 10 16 0.00 0.00
5:53 am 05:53 Mostly Cloudy 40 4.4 14 -10 35 35 N 13 20 30.29 1026 10 16 0.00 0.00
6:53 am 06:53 Cloudy 40 4.4 12 -11.1 32 32 N 23 37 30.36 1028 10 16 0.00 0.00
7:53 am 07:53 Mostly Sunny 37 2.8 12 -11.1 36 36 N 14 22 30.38 1029 10 16 0.00 0.00
8:53 am 08:53 Sunny 38 3.3 12 -11.1 34 34 N 10 17 30.41 1030 10 16 0.00 0.00
9:53 am 09:53 Sunny 41 5 13 -10.6 32 32 N 18 30 30.45 1031 10 16 0.00 0.00
10:53 am 10:53 Sunny 44 6.7 11 -11.7 26 26 N 22 35 30.44 1031 10 16 0.00 0.00
11:53 am 11:53 Sunny 46 7.8 9 -12.8 22 22 N 23 37 30.42 1030 10 16 0.00 0.00
12:53 pm 12:53 Sunny 48 8.9 8 -13.3 19 19 NNW 17 28 30.38 1029 10 16 0.00 0.00
1:53 pm 13:53 Sunny 50 10 8 -13.3 18 18 N 15 24 30.34 1027 10 16 0.00 0.00
2:53 pm 14:53 Sunny 51 10.6 6 -14.4 16 16 N 18 30 30.31 1026 10 16 0.00 0.00
3:53 pm 15:53 Sunny 52 11.1 6 -14.4 15 15 NW 20 31 30.28 1025 10 16 0.00 0.00
4:53 pm 16:53 Sunny 52 11.1 5 -15 15 15 NNW 14 22 30.28 1025 10 16 0.00 0.00
5:53 pm 17:53 Sunny 49 9.4 7 -13.9 18 18 NW 14 22 30.28 1026 10 16 0.00 0.00
6:53 pm 18:53 Clear 44 6.7 7 -13.9 22 22 WNW 8 13 30.30 1026 10 16 0.00 0.00
7:53 pm 19:53 Clear 39 3.9 8 -13.3 28 28 WNW 9 15 30.32 1027 10 16 0.00 0.00
8:53 pm 20:53 Clear 34 1.1 6 -14.4 31 31 N 3 6 30.32 1027 10 16 0.00 0.00
9:53 pm 21:53 Clear 32 0 6 -14.4 33 33 WNW 6 9 30.31 1027 10 16 0.00 0.00
10:53 pm 22:53 Clear 30 -1.1 6 -14.4 36 36 NW 3 6 30.31 1026 10 16 0.00 0.00
11:53 pm 23:53 Clear 27 -2.8 5 -15 39 39 N 3 6 30.28 1026 10 16 0.00 0.00

Powered by AerisWeather